| time (UTC) | temp F | wind direction | speed knots | gust knots | rain 1hr in | rain 24hr in | rain mn in | humidity % | barometer mb |
| 20260510100020 | 50 | 208 | 4.3 | 10.4 | 0.00 | 0.00 | 0.00 | 90 | 1007.9 |
| 20260510094526 | 50 | 135 | 3.5 | 8.7 | 0.00 | 0.00 | 0.00 | 90 | 1007.4 |
| 20260510093009 | 50 | 205 | 5.2 | 10.4 | 0.00 | 0.00 | 0.00 | 90 | 1007.4 |
| 20260510091513 | 50 | 156 | 4.3 | 9.6 | 0.00 | 0.00 | 0.00 | 90 | 1006.9 |
| 20260510090014 | 50 | 214 | 5.2 | 10.4 | 0.00 | 0.00 | 0.00 | 90 | 1007.0 |
| 20260510084522 | 50 | 155 | 4.3 | 9.6 | 0.00 | 0.00 | 0.00 | 90 | 1006.9 |
| 20260510083034 | 50 | 50 | 1.7 | 10.4 | 0.00 | 0.00 | 0.00 | 90 | 1006.7 |
| 20260510081507 | 50 | 211 | 0.9 | 13.9 | 0.00 | 0.00 | 0.00 | 89 | 1006.9 |
| 20260510080011 | 50 | 165 | 2.6 | 7.8 | 0.00 | 0.00 | 0.00 | 89 | 1006.9 |
| 20260510074516 | 51 | 231 | 2.6 | 8.7 | 0.00 | 0.00 | 0.00 | 89 | 1006.7 |
| 20260510073029 | 51 | 229 | 2.6 | 11.3 | 0.00 | 0.00 | 0.00 | 88 | 1006.6 |
| 20260510071535 | 51 | 201 | 1.7 | 10.4 | 0.00 | 0.00 | 0.00 | 89 | 1006.5 |
| 20260510070022 | 51 | 201 | 2.6 | 13.9 | 0.00 | 0.00 | 0.00 | 88 | 1006.5 |
| 20260510064523 | 51 | 221 | 5.2 | 13.0 | 0.00 | 0.00 | 0.00 | 89 | 1006.6 |
| 20260510063018 | 51 | 345 | 0.9 | 7.0 | 0.00 | 0.00 | 0.00 | 89 | 1006.2 |
| 20260510061524 | 51 | 219 | 1.7 | 12.2 | 0.00 | 0.00 | 0.00 | 88 | 1006.2 |
| 20260510060033 | 51 | 212 | 2.6 | 8.7 | 0.00 | 0.00 | 0.00 | 87 | 1006.3 |
| 20260510054515 | 51 | 230 | 4.3 | 13.9 | 0.00 | 0.00 | 0.00 | 86 | 1006.5 |
| 20260510053015 | 51 | 199 | 3.5 | 9.6 | 0.00 | 0.00 | 0.00 | 85 | 1006.4 |
| 20260510051528 | 51 | 191 | 5.2 | 13.0 | 0.00 | 0.00 | 0.00 | 85 | 1006.6 |
| 20260510050023 | 51 | 209 | 2.6 | 12.2 | 0.00 | 0.00 | 0.00 | 85 | 1007.0 |
| 20260510044529 | 51 | 252 | 2.6 | 11.3 | 0.00 | 0.00 | 0.00 | 85 | 1006.7 |
| 20260510043011 | 50 | 124 | 1.7 | 3.5 | 0.00 | 0.00 | 0.00 | 86 | 1006.6 |
| 20260510041517 | 50 | 332 | 0.9 | 6.1 | 0.00 | 0.00 | 0.00 | 86 | 1006.3 |
| 20260510040019 | 50 | 20 | 0.9 | 4.3 | 0.00 | 0.00 | 0.00 | 86 | 1006.2 |
| 20260510034524 | 50 | 203 | 1.7 | 4.3 | 0.00 | 0.00 | 0.00 | 87 | 1006.2 |
| 20260510033030 | 50 | 48 | 0.9 | 5.2 | 0.00 | 0.00 | 0.00 | 87 | 1006.2 |
| 20260510031528 | 50 | 122 | 1.7 | 7.0 | 0.00 | 0.00 | 0.00 | 86 | 1006.6 |
| 20260510030016 | 50 | 122 | 0.9 | 9.6 | 0.00 | 0.00 | 0.00 | 86 | 1006.4 |
| 20260510024523 | 50 | 209 | 1.7 | 8.7 | 0.00 | 0.00 | 0.00 | 86 | 1006.7 |
| 20260510023023 | 50 | 148 | 2.6 | 13.0 | 0.00 | 0.00 | 0.00 | 85 | 1007.0 |
| 20260510021532 | 51 | 219 | 6.1 | 16.5 | 0.00 | 0.00 | 0.00 | 84 | 1007.3 |
| 20260510020028 | 51 | 149 | 4.3 | 14.8 | 0.00 | 0.00 | 0.00 | 84 | 1007.2 |
| 20260510014522 | 51 | 244 | 3.5 | 7.8 | 0.00 | 0.00 | 0.00 | 84 | 1007.1 |
| 20260510013023 | 50 | 231 | 1.7 | 7.0 | 0.00 | 0.00 | 0.00 | 85 | 1007.2 |
| 20260510011534 | 50 | 295 | 1.7 | 8.7 | 0.00 | 0.00 | 0.00 | 85 | 1007.3 |
| 20260510010011 | 51 | 165 | 1.7 | 7.8 | 0.00 | 0.00 | 0.00 | 84 | 1007.1 |
| 20260510004524 | 51 | 88 | 0.9 | 7.8 | 0.00 | 0.00 | 0.00 | 84 | 1007.1 |
| 20260510003020 | 51 | 146 | 1.7 | 4.3 | 0.00 | 0.00 | 0.00 | 83 | 1007.2 |
| 20260510001506 | 51 | 43 | 0.9 | 5.2 | 0.00 | 0.00 | 0.00 | 81 | 1007.3 |
| 20260510000008 | 52 | 72 | 1.7 | 8.7 | 0.00 | 0.00 | 0.00 | 80 | 1007.2 |
| 20260509234512 | 52 | 251 | 1.7 | 7.0 | 0.00 | 0.00 | 0.00 | 77 | 1007.2 |
| 20260509233017 | 53 | 238 | 2.6 | 8.7 | 0.00 | 0.00 | 0.00 | 76 | 1007.3 |
| 20260509231527 | 53 | 119 | 1.7 | 6.1 | 0.00 | 0.00 | 0.00 | 74 | 1007.5 |
| 20260509230024 | 54 | 153 | 1.7 | 7.8 | 0.00 | 0.00 | 0.00 | 72 | 1007.4 |
| 20260509224506 | 54 | 228 | 1.7 | 8.7 | 0.00 | 0.00 | 0.00 | 73 | 1007.5 |
| 20260509223018 | 55 | 148 | 2.6 | 11.3 | 0.00 | 0.00 | 0.00 | 70 | 1007.5 |
| 20260509221528 | 55 | 180 | 1.7 | 9.6 | 0.00 | 0.00 | 0.00 | 69 | 1007.4 |
| 20260509220022 | 56 | 141 | 2.6 | 16.5 | 0.00 | 0.00 | 0.00 | 69 | 1007.5 |
| 20260509214525 | 56 | 231 | 2.6 | 7.8 | 0.00 | 0.00 | 0.00 | 68 | 1007.8 |
| 20260509213007 | 58 | 37 | 5.2 | 9.6 | 0.00 | 0.00 | 0.00 | 64 | 1007.6 |
| 20260509211511 | 58 | 167 | 3.5 | 8.7 | 0.00 | 0.00 | 0.00 | 64 | 1007.6 |
| 20260509210018 | 59 | 145 | 2.6 | 9.6 | 0.00 | 0.00 | 0.00 | 61 | 1007.8 |
| 20260509204520 | 59 | 120 | 4.3 | 12.2 | 0.00 | 0.00 | 0.00 | 59 | 1008.0 |
| 20260509203024 | 59 | 104 | 2.6 | 9.6 | 0.00 | 0.00 | 0.00 | 58 | 1008.1 |
| 20260509201510 | 59 | 52 | 3.5 | 11.3 | 0.00 | 0.00 | 0.00 | 57 | 1008.2 |
| 20260509200014 | 60 | 222 | 3.5 | 13.0 | 0.00 | 0.00 | 0.00 | 54 | 1008.3 |
| 20260509194520 | 59 | 219 | 5.2 | 19.1 | 0.00 | 0.00 | 0.00 | 53 | 1008.4 |
| 20260509193023 | 59 | 357 | 6.1 | 13.9 | 0.00 | 0.00 | 0.00 | 55 | 1008.3 |
| 20260509191525 | 59 | 153 | 4.3 | 17.4 | 0.00 | 0.00 | 0.00 | 55 | 1008.5 |
| 20260509190015 | 59 | 179 | 3.5 | 20.0 | 0.00 | 0.00 | 0.00 | 55 | 1008.5 |
| 20260509184527 | 59 | 209 | 8.7 | 19.1 | 0.00 | 0.00 | 0.00 | 53 | 1008.6 |
| 20260509183027 | 60 | 205 | 5.2 | 14.8 | 0.00 | 0.00 | 0.00 | 50 | 1008.7 |
| 20260509181523 | 59 | 237 | 6.1 | 17.4 | 0.00 | 0.00 | 0.00 | 47 | 1009.0 |
| 20260509180028 | 60 | 108 | 4.3 | 17.4 | 0.00 | 0.00 | 0.00 | 48 | 1009.3 |
| 20260509174510 | 60 | 212 | 3.5 | 15.6 | 0.00 | 0.00 | 0.00 | 44 | 1009.6 |
| 20260509173017 | 61 | 131 | 6.1 | 18.2 | 0.00 | 0.00 | 0.00 | 40 | 1009.7 |
| 20260509171523 | 61 | 235 | 3.5 | 11.3 | 0.00 | 0.00 | 0.00 | 38 | 1009.7 |
| 20260509170032 | 61 | 238 | 4.3 | 9.6 | 0.00 | 0.00 | 0.00 | 35 | 1009.9 |
| 20260509164527 | 62 | 162 | 4.3 | 13.0 | 0.00 | 0.00 | 0.00 | 35 | 1010.0 |
| 20260509163013 | 60 | 218 | 3.5 | 10.4 | 0.00 | 0.00 | 0.00 | 38 | 1010.2 |
| 20260509161518 | 60 | 93 | 2.6 | 8.7 | 0.00 | 0.00 | 0.00 | 41 | 1010.4 |
| 20260509160005 | 59 | 209 | 1.7 | 6.1 | 0.00 | 0.00 | 0.00 | 45 | 1010.6 |
| 20260509154508 | 60 | 222 | 2.6 | 9.6 | 0.00 | 0.00 | 0.00 | 41 | 1010.8 |
| 20260509153010 | 60 | 310 | 0.9 | 9.6 | 0.00 | 0.00 | 0.00 | 43 | 1011.1 |
| 20260509151515 | 59 | 136 | 2.6 | 7.8 | 0.00 | 0.00 | 0.00 | 42 | 1011.3 |
| 20260509150027 | 58 | 110 | 1.7 | 10.4 | 0.00 | 0.00 | 0.00 | 44 | 1011.3 |
| 20260509144506 | 57 | 68 | 2.6 | 8.7 | 0.00 | 0.00 | 0.00 | 45 | 1011.4 |
| 20260509143012 | 57 | 39 | 1.7 | 7.0 | 0.00 | 0.00 | 0.00 | 46 | 1011.6 |
| 20260509141519 | 55 | 89 | 2.6 | 10.4 | 0.00 | 0.00 | 0.00 | 49 | 1011.6 |
| 20260509140026 | 55 | 132 | 1.7 | 7.0 | 0.00 | 0.00 | 0.00 | 51 | 1011.7 |
| 20260509134525 | 54 | 274 | 2.6 | 7.8 | 0.00 | 0.00 | 0.00 | 52 | 1011.6 |
| 20260509133006 | 53 | 96 | 1.7 | 7.8 | 0.00 | 0.00 | 0.00 | 53 | 1011.8 |
| 20260509131509 | 52 | 245 | 3.5 | 10.4 | 0.00 | 0.00 | 0.00 | 55 | 1012.0 |
| 20260509130010 | 51 | 198 | 2.6 | 9.6 | 0.00 | 0.00 | 0.00 | 55 | 1012.0 |
| 20260509124527 | 51 | 43 | 0.9 | 7.0 | 0.00 | 0.00 | 0.00 | 58 | 1012.2 |
| 20260509123029 | 50 | 240 | 1.7 | 7.8 | 0.00 | 0.00 | 0.00 | 58 | 1012.2 |
| 20260509121505 | 50 | 204 | 1.7 | 7.8 | 0.00 | 0.00 | 0.00 | 58 | 1012.3 |
| 20260509120008 | 49 | 41 | 0.9 | 8.7 | 0.00 | 0.00 | 0.00 | 60 | 1012.1 |
| 20260509114514 | 48 | 106 | 1.7 | 7.0 | 0.00 | 0.01 | 0.00 | 64 | 1012.3 |
| 20260509113020 | 47 | 271 | 0.9 | 4.3 | 0.00 | 0.01 | 0.00 | 65 | 1012.3 |
| 20260509111522 | 46 | 44 | 0.9 | 4.3 | 0.00 | 0.01 | 0.00 | 67 | 1012.2 |
| 20260509110017 | 45 | 116 | 0.9 | 4.3 | 0.00 | 0.01 | 0.00 | 67 | 1012.2 |
| 20260509104513 | 44 | 210 | 0.9 | 7.0 | 0.00 | 0.01 | 0.00 | 70 | 1012.2 |
| 20260509103012 | 43 | 222 | 0.9 | 4.3 | 0.00 | 0.01 | 0.00 | 72 | 1012.0 |
| 20260509101523 | 42 | 68 | 0.0 | 3.5 | 0.00 | 0.01 | 0.00 | 74 | 1011.8 |